STARLINK-1364, 45589

Orbit data source: Space-Track

STARLINK-1364, 45589 is a payload satellite owned by SpaceX/Seattle (US) in LEO that was launched on Wed, 22 Apr 2020 UTC via an FALCON 9 launch vehicle from the Air Force Eastern Test Range (AFETR). Payload-class satellites include a variety of spacecraft equipped with specific instruments for various scientific and technological missions. These include communications satellites like Starlink; space stations such as the ISS; scientific satellites like the Hubble; Earth observation satellites from companies like Planet Labs, Umbra, and HawkEye 360; GPS; miniature CubeSats for education and research; and military/defense satellites.

Loading next visibility...
Identifier
45589, 2020-025BL
Orbit
LEO
Country
Flag of USUS
Related business
Manufacturer
SpaceX/Seattle
Mission
Partially operational Commercial Communications
Bus & Motor
STARLINK, Unknown motor
Mass
260 kg wet, ~248 kg dry
Launch date (UTC)
2020-04-22 (6 years ago)
Launch vehicle
FALCON 9
Launch site
Air Force Eastern Test Range (AFETR)
Object type
Payload
Rocket body
Debris
Shape & HBR
Box + 1 Pan, 10.1 m
Radar Cross Section
13.562 m², Large (>1 m²)

Expand to show TLE details & history
Last TLE update: 20 hours ago

TLE from 20 hours ago
0 STARLINK-1364
1 45589U 20025BL  26123.27530553  .00101850  00000-0  12711-2 0  9993
2 45589  53.0446 159.5245 0005164 328.6417  31.4287 15.59076754334186
Epoch: 2026-05-03T06:36Z
TLE epoch observation values (Epoch: 2026-05-03T06:36:26.397Z)
Latitude
0.00003°
Longitude
-160.76666°
Altitude
388.244 km
Speed
7.68 km/s
True Right ascension
10h 38m 05s
True Declination
0° 00' 00"
Sunlit
Object was in full shadow at epoch
Visualization orbit readout
Latitude
Unknown
Longitude
Unknown
Altitude
Unknown
Speed
Unknown
Apparent Right ascension
Unknown
Apparent Declination
Unknown
Sunlit
N/A
Visualization observer readout
Local Sidereal Time
10:11:02
Azimuth
Unknown
Elevation
Unknown
Doppler factor
Unknown
Orbital elements
Apogee altitude
394.102 km
Perigee altitude
387.111 km
Semi-major axis
6,768.743 km
Eccentricity
0.00052
Inclination
53.0446°
RAAN
159.5245°
Arg. of periapsis
328.6417°
True anomaly
31.45957°
Mean anomaly
31.4287°
Eccentric anomaly
31.44413°
Mean motion
3.89745 °/min
Orbital period
92.37 mins
BSTAR
0.0012711
Loading maneuver chart data...
Computing Atmospheric mass density...

Documentation

Showing up to 5 results
|